DT_LEITURA;HR_LEITURA;MED-PressaoAtm[hPa];VAL-TempExt[oC];VAL-UmidExt[%UR];VAL-TempInt[oC];VAL-UmidInt[%UR];Dir-Vento[grau];Vel-Vento[m/s];Precipitação[mm/h]
08/08/2026;00:04:00;1012,8;;;17,2;78;46;0,8;0,0
08/08/2026;00:09:00;1012,8;;;17,2;78;264;1,0;0,0
08/08/2026;00:14:00;1012,8;;;17,1;78;318;1,3;0,0
08/08/2026;00:19:00;1012,8;;;17,1;78;233;0,8;0,0
08/08/2026;00:24:00;1012,8;;;17,1;78;209;1,1;0,0
08/08/2026;00:29:00;1012,8;;;17,1;78;172;1,2;0,0
08/08/2026;00:34:00;1012,7;;;17,1;78;204;1,2;0,0
08/08/2026;00:39:00;1012,7;;;17,1;78;245;0,7;0,0
08/08/2026;00:44:00;1012,7;;;17,1;78;223;0,8;0,0
08/08/2026;00:49:00;1012,6;;;17,1;78;312;1,3;0,0
08/08/2026;00:54:00;1012,6;;;17,0;78;358;2,1;0,0
08/08/2026;00:59:00;1012,6;;;17,1;78;54;2,2;0,0
08/08/2026;01:04:00;1012,7;;;17,1;78;33;2,6;0,0
08/08/2026;01:09:00;1012,7;;;17,1;78;83;1,1;0,0
08/08/2026;01:14:00;1012,6;;;17,0;78;7;1,5;0,0
08/08/2026;01:19:00;1012,6;;;17,0;78;15;1,3;0,0
08/08/2026;01:24:00;1012,4;;;17,0;78;32;2,5;0,0
08/08/2026;01:29:00;1012,4;;;17,0;78;41;2,1;0,0
08/08/2026;01:34:00;1012,4;;;16,9;78;41;2,0;0,0
08/08/2026;01:39:00;1012,4;;;16,9;78;21;2,2;0,0
08/08/2026;01:44:00;1012,2;;;16,9;78;20;1,9;0,0
08/08/2026;01:49:00;1012,2;;;16,9;78;26;2,5;0,0
08/08/2026;01:54:00;1012,2;;;16,9;78;44;2,3;0,0
08/08/2026;01:59:00;1012,1;;;16,9;78;35;3,0;0,0
08/08/2026;02:04:00;1012,0;;;16,9;78;37;2,4;0,0
08/08/2026;02:09:00;1011,9;;;16,9;78;32;3,2;0,0
08/08/2026;02:14:00;1011,9;;;16,9;78;26;3,7;0,0
08/08/2026;02:19:00;1012,0;;;16,9;78;35;3,6;0,0
08/08/2026;02:24:00;1012,0;;;16,9;78;33;3,3;0,0
08/08/2026;02:29:00;1012,0;;;17,0;78;31;3,1;0,0
08/08/2026;02:34:00;1011,8;;;17,0;78;37;3,6;0,0
08/08/2026;02:39:00;1011,7;;;17,0;78;33;3,4;0,0
08/08/2026;02:44:00;1011,7;;;17,0;78;36;3,8;0,0
08/08/2026;02:49:00;1011,6;;;17,0;78;35;3,5;0,0
08/08/2026;02:54:00;1011,6;;;17,0;78;26;3,6;0,0
08/08/2026;02:59:00;1011,6;;;17,1;78;21;3,0;0,0
08/08/2026;03:04:00;1011,6;;;17,1;78;29;3,6;0,0
08/08/2026;03:09:00;1011,5;;;17,1;78;31;3,0;0,0
08/08/2026;03:14:00;1011,4;;;17,1;77;27;3,3;0,0
08/08/2026;03:19:00;1011,3;;;17,1;77;24;3,3;0,0
08/08/2026;03:24:00;1011,2;;;17,1;77;25;3,9;0,0
08/08/2026;03:29:00;1011,2;;;17,1;77;24;3,5;0,0
08/08/2026;03:34:00;1011,2;;;17,1;77;25;3,9;0,0
08/08/2026;03:39:00;1011,1;;;17,1;77;29;3,2;0,0
08/08/2026;03:44:00;1011,1;;;17,1;77;23;3,8;0,0
08/08/2026;03:49:00;1011,0;;;17,1;77;29;4,0;0,0
08/08/2026;03:54:00;1010,8;;;17,2;77;32;3,7;0,0
08/08/2026;03:59:00;1010,7;;;17,2;77;14;2,7;0,0
08/08/2026;04:04:00;1010,7;;;17,2;77;10;2,4;0,0
08/08/2026;04:09:00;1010,8;;;17,2;77;12;2,5;0,0
08/08/2026;04:14:00;1010,7;;;17,2;77;20;3,0;0,0
08/08/2026;04:19:00;1010,7;;;17,2;77;26;3,7;0,0
08/08/2026;04:24:00;1010,7;;;17,2;77;18;2,9;0,0
08/08/2026;04:29:00;1010,6;;;17,2;77;32;4,0;0,0
08/08/2026;04:34:00;1010,5;;;17,2;77;29;4,2;0,0
08/08/2026;04:39:00;1010,4;;;17,2;77;28;4,1;0,0
08/08/2026;04:44:00;1010,3;;;17,3;77;27;4,9;0,0
08/08/2026;04:49:00;1010,4;;;17,3;77;15;3,7;0,0
08/08/2026;04:54:00;1010,5;;;17,3;77;4;2,5;0,0
08/08/2026;04:59:00;1010,4;;;17,3;77;14;2,0;0,0
08/08/2026;05:04:00;1010,4;;;17,2;77;11;2,3;0,0
08/08/2026;05:09:00;1010,4;;;17,2;77;9;2,0;0,0
08/08/2026;05:14:00;1010,3;;;17,2;77;358;2,2;0,0
08/08/2026;05:19:00;1010,3;;;17,1;77;17;2,0;0,0
08/08/2026;05:24:00;1010,2;;;17,1;77;18;2,4;0,0
08/08/2026;05:29:00;1010,2;;;17,1;77;23;4,2;0,0
08/08/2026;05:34:00;1010,1;;;17,1;78;26;5,2;0,0
08/08/2026;05:39:00;1010,1;;;17,1;78;14;3,6;0,0
08/08/2026;05:44:00;1010,1;;;17,2;78;25;5,3;0,0
08/08/2026;05:49:00;1010,1;;;17,3;78;24;5,2;0,0
08/08/2026;05:54:00;1010,1;;;17,3;78;24;4,8;0,0
08/08/2026;05:59:00;1010,1;;;17,4;78;24;4,5;0,0
08/08/2026;06:04:00;1010,1;;;17,4;77;25;5,1;0,0
08/08/2026;06:09:00;1010,1;;;17,5;77;26;5,1;0,0
08/08/2026;06:14:00;1010,1;;;17,5;77;23;4,4;0,0
08/08/2026;06:19:00;1010,2;;;17,5;77;21;4,2;0,0
08/08/2026;06:24:00;1010,1;;;17,6;77;25;4,6;0,0
08/08/2026;06:29:00;1010,1;;;17,6;77;23;5,4;0,0
08/08/2026;06:34:00;1010,1;;;17,6;77;18;4,5;0,0
08/08/2026;06:39:00;1010,1;;;17,6;77;18;3,6;0,0
08/08/2026;06:44:00;1010,1;;;17,6;77;19;4,6;0,0
08/08/2026;06:49:00;1010,0;;;17,6;77;20;4,5;0,0
08/08/2026;06:54:00;1010,0;;;17,6;77;21;4,3;0,0
08/08/2026;06:59:00;1010,1;;;17,6;77;22;4,7;0,0
08/08/2026;07:04:00;1010,2;;;17,6;77;24;5,3;0,0
08/08/2026;07:09:00;1010,2;;;17,6;77;23;4,9;0,0
08/08/2026;07:14:00;1010,2;;;17,7;77;24;5,2;0,0
08/08/2026;07:19:00;1010,2;;;17,7;77;21;5,1;0,0
08/08/2026;07:24:00;1010,3;;;17,7;77;21;5,1;0,0
08/08/2026;07:29:00;1010,3;;;17,7;77;21;4,7;0,0
08/08/2026;07:34:00;1010,1;;;17,7;77;24;5,2;0,0
08/08/2026;07:39:00;1010,1;;;17,7;77;23;5,2;0,0
08/08/2026;07:44:00;1010,0;;;17,8;77;25;5,8;0,0
08/08/2026;07:49:00;1010,0;;;17,8;77;23;6,0;0,0
08/08/2026;07:54:00;1010,0;;;17,8;77;22;6,0;0,0
08/08/2026;07:59:00;1010,0;;;17,8;77;24;6,5;0,0
08/08/2026;08:04:00;1010,0;;;17,9;77;22;6,4;0,0
08/08/2026;08:09:00;1010,1;;;17,9;77;24;6,4;0,0
08/08/2026;08:14:00;1010,0;;;17,9;77;23;6,6;0,0
08/08/2026;08:19:00;1009,9;;;17,9;77;21;5,8;0,0
08/08/2026;08:24:00;1010,1;;;18,0;77;23;6,4;0,0
08/08/2026;08:29:00;1010,1;;;18,0;77;24;6,2;0,0
08/08/2026;08:34:00;1010,0;;;18,1;77;21;5,8;0,0
08/08/2026;08:39:00;1010,0;;;18,1;77;21;5,7;0,0
08/08/2026;08:44:00;1010,0;;;18,2;77;24;6,1;0,0
08/08/2026;08:49:00;1009,7;;;18,2;77;23;6,3;0,0
08/08/2026;08:54:00;1009,8;;;18,2;77;23;6,5;0,0
08/08/2026;08:59:00;1010,0;;;18,3;77;23;5,9;0,0
08/08/2026;09:04:00;1010,1;;;18,3;77;25;6,7;0,0
08/08/2026;09:09:00;1010,1;;;18,4;77;23;6,0;0,0
08/08/2026;09:14:00;1010,0;;;18,4;77;24;6,2;0,0
08/08/2026;09:19:00;1010,0;;;18,5;77;19;5,1;0,0
08/08/2026;09:24:00;1009,9;;;18,5;77;21;5,1;0,0
08/08/2026;09:29:00;1010,0;;;18,5;77;21;5,3;0,0
08/08/2026;09:34:00;1010,2;;;18,6;77;21;5,6;0,0
08/08/2026;09:39:00;1010,4;;;18,6;77;24;4,9;0,0
08/08/2026;09:44:00;1010,4;;;18,7;77;24;5,1;0,0
08/08/2026;09:49:00;1010,5;;;18,7;77;19;4,0;0,0
08/08/2026;09:54:00;1010,3;;;18,7;77;17;3,8;0,0
08/08/2026;09:59:00;1010,0;;;18,8;77;21;4,2;0,0
08/08/2026;10:04:00;1009,9;;;18,8;77;24;4,6;0,0
08/08/2026;10:09:00;1010,2;;;18,9;77;22;4,7;0,0
08/08/2026;10:14:00;1010,0;;;18,9;77;20;4,7;0,0
08/08/2026;10:19:00;1010,2;;;19,0;77;13;4,8;0,0
08/08/2026;10:24:00;1009,3;;;19,0;77;26;5,3;0,0
08/08/2026;10:29:00;1009,3;;;19,1;77;21;5,7;0,0
08/08/2026;10:34:00;1009,7;;;19,2;78;20;5,5;0,0
08/08/2026;10:39:00;1009,3;;;19,2;77;20;5,2;0,0
08/08/2026;10:44:00;1008,8;;;19,3;77;23;5,6;0,0
08/08/2026;10:49:00;1009,1;;;19,3;77;20;4,9;0,0
08/08/2026;10:54:00;1009,8;;;19,3;77;20;4,2;0,0
08/08/2026;10:59:00;1009,7;;;19,3;77;13;4,2;0,0
08/08/2026;11:04:00;1009,6;;;19,2;77;18;5,3;0,0
08/08/2026;11:09:00;1009,3;;;19,2;77;17;5,1;0,0
08/08/2026;11:14:00;1009,3;;;19,3;77;16;5,0;0,0
08/08/2026;11:19:00;1008,9;;;19,3;77;16;4,4;0,0
08/08/2026;11:24:00;1008,7;;;19,3;77;20;5,9;0,0
08/08/2026;11:29:00;1008,3;;;19,3;77;15;5,8;0,0
08/08/2026;11:34:00;1008,3;;;19,3;77;19;5,7;0,0
08/08/2026;11:39:00;1007,7;;;19,3;77;17;6,3;0,0
08/08/2026;11:44:00;1007,8;;;19,3;77;16;5,5;0,0
08/08/2026;11:49:00;1008,0;;;19,3;77;21;6,3;0,0
08/08/2026;11:54:00;1007,7;;;19,3;77;20;6,0;0,0
08/08/2026;11:59:00;1007,4;;;19,3;77;25;7,0;0,0
08/08/2026;12:04:00;1007,0;;;19,2;77;24;7,4;0,0
08/08/2026;12:09:00;1007,1;;;19,1;77;23;7,7;0,0
08/08/2026;12:14:00;1007,1;;;19,0;77;25;7,5;0,0
08/08/2026;12:19:00;1006,8;;;19,0;77;26;8,0;0,0
08/08/2026;12:24:00;1006,5;;;18,9;77;28;8,2;0,0
08/08/2026;12:29:00;1006,4;;;18,8;77;26;8,0;0,0
08/08/2026;12:34:00;1006,6;;;18,7;77;25;6,9;0,0
08/08/2026;12:39:00;1006,6;;;18,7;77;26;7,5;0,0
08/08/2026;12:44:00;1006,8;;;18,6;77;24;6,3;0,0
08/08/2026;12:49:00;1006,3;;;18,6;77;26;7,0;0,0
08/08/2026;12:54:00;1005,6;;;18,6;77;27;7,5;0,0
08/08/2026;12:59:00;1005,5;;;18,5;77;25;7,0;0,0
08/08/2026;13:04:00;1005,5;;;18,5;77;26;7,5;0,0
08/08/2026;13:09:00;1005,6;;;18,5;77;24;6,9;0,0
08/08/2026;13:14:00;1005,7;;;18,5;77;25;6,5;0,0
08/08/2026;13:19:00;1005,8;;;18,5;77;24;6,0;0,0
08/08/2026;13:24:00;1005,2;;;18,5;77;24;5,7;0,0
08/08/2026;13:29:00;1005,4;;;18,5;77;23;5,8;0,0
08/08/2026;13:34:00;1005,1;;;18,5;77;24;6,1;0,0
08/08/2026;13:39:00;1004,7;;;18,5;77;26;7,0;0,0
08/08/2026;13:44:00;1004,5;;;18,5;77;25;7,4;0,0
08/08/2026;13:49:00;1004,6;;;18,5;77;23;6,9;0,0
08/08/2026;13:54:00;1005,0;;;18,5;78;25;6,8;0,0
08/08/2026;13:59:00;1004,5;;;18,5;77;29;7,5;1,0
08/08/2026;14:04:00;1004,7;;;18,5;77;26;6,9;0,2
08/08/2026;14:09:00;1003,8;;;18,5;77;31;5,8;0,0
08/08/2026;14:14:00;1002,9;;;18,4;77;33;5,8;0,2
08/08/2026;14:19:00;1003,6;;;18,4;78;23;5,3;0,4
08/08/2026;14:24:00;1003,4;;;18,4;78;24;5,1;0,0
08/08/2026;14:29:00;1003,2;;;18,4;78;27;6,9;0,6
08/08/2026;14:34:00;1003,9;;;18,4;78;21;5,8;0,0
08/08/2026;14:39:00;1003,8;;;18,4;78;24;6,1;0,0
08/08/2026;14:44:00;1003,6;;;18,4;78;21;4,6;0,0
08/08/2026;14:49:00;1003,7;;;18,4;78;24;5,3;0,0
08/08/2026;14:54:00;1003,5;;;18,5;78;23;5,3;0,0
08/08/2026;14:59:00;1003,3;;;18,5;78;24;5,0;0,0
08/08/2026;15:04:00;1003,3;;;18,5;78;24;4,5;0,0
08/08/2026;15:09:00;1003,5;;;18,6;78;17;3,0;0,0
08/08/2026;15:14:00;1003,8;;;18,7;78;16;2,1;0,0
08/08/2026;15:19:00;1003,6;;;18,7;79;28;2,9;0,0
08/08/2026;15:24:00;1003,0;;;18,8;79;35;2,9;0,0
08/08/2026;15:29:00;1002,8;;;19,0;80;45;2,4;0,0
08/08/2026;15:34:00;1002,9;;;19,2;80;40;2,5;0,0
08/08/2026;15:39:00;1002,6;;;19,3;79;38;2,2;0,0
08/08/2026;15:44:00;1002,4;;;19,5;79;29;3,9;0,0
08/08/2026;15:49:00;1002,5;;;19,6;79;27;4,3;0,0
08/08/2026;15:54:00;1002,7;;;19,8;78;24;4,4;0,0
08/08/2026;15:59:00;1002,8;;;19,9;78;23;4,0;0,0
08/08/2026;16:04:00;1002,4;;;20,1;78;26;4,8;0,0
08/08/2026;16:09:00;1002,1;;;20,1;77;28;4,9;0,0
08/08/2026;16:14:00;1002,1;;;20,1;77;25;5,6;0,0
08/08/2026;16:19:00;1002,5;;;20,1;77;23;5,5;0,0
08/08/2026;16:24:00;1002,5;;;20,1;77;27;5,0;0,0
08/08/2026;16:29:00;1002,4;;;20,1;77;27;5,0;0,0
08/08/2026;16:34:00;1002,8;;;20,0;77;23;4,8;0,0
08/08/2026;16:39:00;1002,7;;;19,9;77;26;5,7;0,0
08/08/2026;16:44:00;1002,7;;;19,9;77;24;5,0;0,0
08/08/2026;16:49:00;1002,7;;;19,8;77;25;5,0;0,0
08/08/2026;16:54:00;1002,7;;;19,8;77;25;4,7;0,0
08/08/2026;16:59:00;1002,6;;;19,8;77;23;4,0;0,0
08/08/2026;17:04:00;1002,5;;;19,8;77;27;3,6;0,0
08/08/2026;17:09:00;1002,6;;;19,8;77;28;3,5;0,0
08/08/2026;17:14:00;1002,5;;;19,8;78;32;2,7;0,0
08/08/2026;17:19:00;1002,1;;;19,9;78;42;1,6;0,0
08/08/2026;17:24:00;1002,3;;;20,0;78;23;2,7;0,0
08/08/2026;17:29:00;1002,8;;;20,1;78;22;3,8;0,0
08/08/2026;17:34:00;1003,0;;;20,1;77;11;2,3;0,0
08/08/2026;17:39:00;1003,2;;;20,1;77;348;1,2;0,0
08/08/2026;17:44:00;1003,4;;;20,1;77;316;1,6;0,0
08/08/2026;17:49:00;1003,5;;;20,1;77;286;2,3;0,0
08/08/2026;17:54:00;1003,8;;;20,1;77;266;2,1;0,0
08/08/2026;17:59:00;1004,2;;;20,1;77;250;1,8;0,0
08/08/2026;18:04:00;1004,4;;;20,0;77;232;1,9;0,0
08/08/2026;18:09:00;1004,4;;;20,0;77;212;1,3;0,0
08/08/2026;18:14:00;1004,3;;;19,9;77;179;1,5;0,0
08/08/2026;18:19:00;1004,4;;;19,9;77;197;1,9;0,0
08/08/2026;18:24:00;1004,3;;;19,8;77;211;2,3;0,0
08/08/2026;18:29:00;1004,6;;;19,8;77;231;3,1;0,0
08/08/2026;18:34:00;1004,8;;;19,7;77;229;4,0;0,0
08/08/2026;18:39:00;1004,8;;;19,7;77;219;4,0;0,0
08/08/2026;18:44:00;1004,7;;;19,6;77;214;3,3;0,0
08/08/2026;18:49:00;1004,7;;;19,6;77;222;4,2;0,0
08/08/2026;18:54:00;1004,7;;;19,6;77;223;4,3;0,0
08/08/2026;18:59:00;1004,9;;;19,5;77;238;3,8;0,0
08/08/2026;19:04:00;1005,1;;;19,5;77;242;4,2;0,0
08/08/2026;19:09:00;1005,3;;;19,4;77;243;4,3;0,0
08/08/2026;19:14:00;1005,2;;;19,3;77;232;3,5;0,0
08/08/2026;19:19:00;1005,5;;;19,3;78;235;4,1;0,0
08/08/2026;19:24:00;1005,5;;;19,2;78;232;3,9;0,0
08/08/2026;19:29:00;1005,7;;;19,1;78;240;3,7;0,0
08/08/2026;19:34:00;1005,6;;;19,1;78;228;3,4;0,0
08/08/2026;19:39:00;1005,7;;;19,0;78;230;4,2;0,0
08/08/2026;19:44:00;1005,7;;;19,0;78;214;4,0;0,0
08/08/2026;19:49:00;1005,8;;;18,9;78;218;3,9;0,0
08/08/2026;19:54:00;1005,9;;;18,9;78;215;3,7;0,0
08/08/2026;19:59:00;1005,9;;;18,8;78;221;3,0;0,0
08/08/2026;20:04:00;1005,9;;;18,7;78;238;2,9;0,0
08/08/2026;20:09:00;1006,1;;;18,7;78;223;2,8;0,0
08/08/2026;20:14:00;1006,2;;;18,7;78;216;2,7;0,0
08/08/2026;20:19:00;1006,3;;;18,6;78;217;2,5;0,0
08/08/2026;20:24:00;1006,4;;;18,5;78;214;2,5;0,0
08/08/2026;20:29:00;1006,6;;;18,5;78;217;2,6;0,0
08/08/2026;20:34:00;1006,8;;;18,5;78;213;2,0;0,0
08/08/2026;20:39:00;1006,9;;;18,5;78;208;2,1;0,0
08/08/2026;20:44:00;1007,1;;;18,4;78;214;1,9;0,0
08/08/2026;20:49:00;1007,2;;;18,4;78;224;2,1;0,0
08/08/2026;20:54:00;1007,2;;;18,4;78;214;1,7;0,0
08/08/2026;20:59:00;1007,3;;;18,4;78;197;1,6;0,0
08/08/2026;21:04:00;1007,4;;;18,4;78;199;1,6;0,0
08/08/2026;21:09:00;1007,4;;;18,4;78;204;1,3;0,0
08/08/2026;21:14:00;1007,3;;;18,4;78;201;1,3;0,0
08/08/2026;21:19:00;1007,4;;;18,3;78;189;1,8;0,0
08/08/2026;21:24:00;1007,3;;;18,3;78;192;1,5;0,0
08/08/2026;21:29:00;1007,4;;;18,3;78;209;1,6;0,0
08/08/2026;21:34:00;1007,6;;;18,3;79;216;1,5;0,0
08/08/2026;21:39:00;1007,7;;;18,3;79;220;1,7;0,0
08/08/2026;21:44:00;1007,7;;;18,4;78;229;2,1;0,0
08/08/2026;21:49:00;1008,0;;;18,4;79;241;2,5;0,0
08/08/2026;21:54:00;1008,2;;;18,4;79;237;2,4;0,0
08/08/2026;21:59:00;1008,3;;;18,4;78;239;2,3;0,0
08/08/2026;22:04:00;1008,5;;;18,4;78;237;2,9;0,0
08/08/2026;22:09:00;1008,6;;;18,5;78;233;3,3;0,0
08/08/2026;22:14:00;1008,6;;;18,5;78;233;3,0;0,0
08/08/2026;22:19:00;1008,8;;;18,5;78;237;2,7;0,0
08/08/2026;22:24:00;1008,9;;;18,5;78;228;3,2;0,0
08/08/2026;22:29:00;1009,1;;;18,5;78;225;3,9;0,0
08/08/2026;22:34:00;1009,2;;;18,5;78;225;4,0;0,0
08/08/2026;22:39:00;1009,4;;;18,5;78;230;3,3;0,0
08/08/2026;22:44:00;1009,5;;;18,5;78;226;3,8;0,0
08/08/2026;22:49:00;1009,6;;;18,5;78;227;3,5;0,0
08/08/2026;22:54:00;1009,6;;;18,5;78;241;3,1;0,0
08/08/2026;22:59:00;1009,6;;;18,5;78;237;3,0;0,0
08/08/2026;23:04:00;1009,7;;;18,5;78;238;3,6;0,0
08/08/2026;23:09:00;1009,8;;;18,4;78;231;4,4;0,0
08/08/2026;23:14:00;1009,9;;;18,4;78;235;3,9;0,0
08/08/2026;23:19:00;1010,0;;;18,4;78;241;2,6;0,0
08/08/2026;23:24:00;1010,1;;;18,3;78;246;2,1;0,0
08/08/2026;23:29:00;1010,2;;;18,2;78;236;1,7;0,0
08/08/2026;23:34:00;1010,3;;;18,2;78;257;2,4;0,0
08/08/2026;23:39:00;1010,4;;;18,1;78;240;1,9;0,0
08/08/2026;23:44:00;1010,5;;;18,1;78;240;2,4;0,0
08/08/2026;23:49:00;1010,6;;;18,0;78;247;2,0;0,0
08/08/2026;23:54:00;1010,7;;;18,0;78;254;2,3;0,0
08/08/2026;23:59:00;1010,8;;;17,9;78;248;1,8;0,0
